owner,sensor,date,latitude,longitude,vertical_datum,wind_speed,wind_to_direction,wind_speed_of_gust,qcFlag 
TABS,ioos:station:wmo:42043:1,2017-11-01T00:00:00Z,28.9818,-94.9186,4.0,6.000749953,147.660909,7.24,'11111222,11111222,11111222' 
TABS,ioos:station:wmo:42043:1,2017-11-01T00:30:00Z,28.9818,-94.9186,4.0,5.396267228,136.1265594,6.86,'11111222,11111222,11111222' 
TABS,ioos:station:wmo:42043:1,2017-11-01T01:00:00Z,28.9818,-94.9186,4.0,5.120009766,143.0184936,6.23,'11111222,11111222,11111222' 
TABS,ioos:station:wmo:42043:1,2017-11-01T01:30:00Z,28.9818,-94.9186,4.0,4.487070314,141.8789322,5.83,'11111222,11111222,11111222' 
TABS,ioos:station:wmo:42043:1,2017-11-01T02:00:00Z,28.9818,-94.9186,4.0,4.766057071,148.6448026,5.85,'11111222,11111222,11111222' 
TABS,ioos:station:wmo:42043:1,2017-11-01T02:30:00Z,28.9818,-94.9186,4.0,4.88086058,148.9157346,5.68,'11111222,11111222,11111222' 
TABS,ioos:station:wmo:42043:1,2017-11-01T03:00:00Z,28.9818,-94.9186,4.0,4.824987047,150.0344654,6.02,'11111222,11111222,11111222' 
TABS,ioos:station:wmo:42043:1,2017-11-01T03:30:00Z,28.9818,-94.9186,4.0,5.099068542,156.0491864,6.24,'11111222,11111222,11111222' 
TABS,ioos:station:wmo:42043:1,2017-11-01T04:00:00Z,28.9818,-94.9186,4.0,4.758928451,156.0744506,5.65,'11111222,11111222,11111222' 
TABS,ioos:station:wmo:42043:1,2017-11-01T04:30:00Z,28.9818,-94.9186,4.0,3.785828839,146.3102217,4.55,'11111222,11111222,11111222' 
TABS,ioos:station:wmo:42043:1,2017-11-01T05:00:00Z,28.9818,-94.9186,4.0,4.770932823,163.3125081,5.67,'11111222,11111222,11111222' 
TABS,ioos:station:wmo:42043:1,2017-11-01T05:30:00Z,28.9818,-94.9186,4.0,4.759432739,170.2014631,5.46,'11111222,11111222,11111222' 
TABS,ioos:station:wmo:42043:1,2017-11-01T06:00:00Z,28.9818,-94.9186,4.0,4.741698008,160.1513564,6.37,'11111222,11111222,11111222' 
TABS,ioos:station:wmo:42043:1,2017-11-01T06:30:00Z,28.9818,-94.9186,4.0,4.625764802,154.930996,6.45,'11111222,11111222,11111222' 
TABS,ioos:station:wmo:42043:1,2017-11-01T07:00:00Z,28.9818,-94.9186,4.0,6.787547422,177.2979965,8.05,'11111222,11111222,11111222' 
TABS,ioos:station:wmo:42043:1,2017-11-01T07:30:00Z,28.9818,-94.9186,4.0,5.508920039,161.0390679,7.09,'11111222,11111222,11111222' 
TABS,ioos:station:wmo:42043:1,2017-11-01T08:00:00Z,28.9818,-94.9186,4.0,5.490509995,167.4827508,7.4,'11111222,11111222,11111222' 
TABS,ioos:station:wmo:42043:1,2017-11-01T08:30:00Z,28.9818,-94.9186,4.0,5.146688256,166.2880057,6.37,'11111222,11111222,11111222' 
TABS,ioos:station:wmo:42043:1,2017-11-01T09:00:00Z,28.9818,-94.9186,4.0,5.469780617,169.0395385,6.68,'11111222,11111222,11111222' 
TABS,ioos:station:wmo:42043:1,2017-11-01T09:30:00Z,28.9818,-94.9186,4.0,5.132611421,172.6121345,6.33,'11111222,11111222,11111222' 
TABS,ioos:station:wmo:42043:1,2017-11-01T10:00:00Z,28.9818,-94.9186,4.0,5.98414572,170.3805052,7.57,'11111222,11111222,11111222' 
TABS,ioos:station:wmo:42043:1,2017-11-01T10:30:00Z,28.9818,-94.9186,4.0,6.128564269,172.7824432,7.95,'11111222,11111222,11111222' 
TABS,ioos:station:wmo:42043:1,2017-11-01T11:00:00Z,28.9818,-94.9186,4.0,7.499466648,184.1293637,9.01,'11111222,11111222,11111222' 
TABS,ioos:station:wmo:42043:1,2017-11-01T11:30:00Z,28.9818,-94.9186,4.0,7.650529393,180.6742458,9.18,'11111222,11111222,11111222' 
TABS,ioos:station:wmo:42043:1,2017-11-01T12:00:00Z,28.9818,-94.9186,4.0,6.066465198,177.3547684,7.79,'11111222,11111222,11111222' 
TABS,ioos:station:wmo:42043:1,2017-11-01T12:30:00Z,28.9818,-94.9186,4.0,7.866549434,183.7173787,9.62,'11111222,11111222,11111222' 
TABS,ioos:station:wmo:42043:1,2017-11-01T13:00:00Z,28.9818,-94.9186,4.0,9.695205,194.8821048,11.15,'11111222,11111222,11111222' 
TABS,ioos:station:wmo:42043:1,2017-11-01T13:30:00Z,28.9818,-94.9186,4.0,6.935776813,195.2987651,8.88,'11111222,11111222,11111222' 
TABS,ioos:station:wmo:42043:1,2017-11-01T14:00:00Z,28.9818,-94.9186,4.0,6.12000817,199.4713585,7.69,'11111222,11111222,11111222' 
TABS,ioos:station:wmo:42043:1,2017-11-01T14:30:00Z,28.9818,-94.9186,4.0,4.693367661,200.7133773,5.96,'11111222,11111222,11111222' 
TABS,ioos:station:wmo:42043:1,2017-11-01T15:00:00Z,28.9818,-94.9186,4.0,4.514255199,201.8487065,5.94,'11111222,11111222,11111222' 
TABS,ioos:station:wmo:42043:1,2017-11-01T15:30:00Z,28.9818,-94.9186,4.0,5.156403786,193.6860758,6.31,'11111222,11111222,11111222' 
TABS,ioos:station:wmo:42043:1,2017-11-01T16:00:00Z,28.9818,-94.9186,4.0,4.84228252,191.797431,5.86,'11111222,11111222,11111222' 
TABS,ioos:station:wmo:42043:1,2017-11-01T16:30:00Z,28.9818,-94.9186,4.0,5.296574365,217.7138167,8.99,'11111222,11111222,11111222' 
TABS,ioos:station:wmo:42043:1,2017-11-01T17:00:00Z,28.9818,-94.9186,4.0,3.867428086,258.515767,5.81,'11111222,11111222,11111222' 
TABS,ioos:station:wmo:42043:1,2017-11-01T17:30:00Z,28.9818,-94.9186,4.0,3.763150276,245.3418905,8.27,'11111222,11111222,11111222' 
TABS,ioos:station:wmo:42043:1,2017-11-01T18:00:00Z,28.9818,-94.9186,4.0,2.085425616,239.130552,2.88,'11111222,11111222,11111222' 
TABS,ioos:station:wmo:42043:1,2017-11-01T18:30:00Z,28.9818,-94.9186,4.0,2.143361845,229.9207098,2.9,'11111222,11111222,11111222' 
TABS,ioos:station:wmo:42043:1,2017-11-01T19:00:00Z,28.9818,-94.9186,4.0,2.559941406,236.3100113,3.35,'11111222,11111222,11111222' 
TABS,ioos:station:wmo:42043:1,2017-11-01T19:30:00Z,28.9818,-94.9186,4.0,2.482680004,237.3341819,3.25,'11111222,11111222,11111222' 
TABS,ioos:station:wmo:42043:1,2017-11-01T20:00:00Z,28.9818,-94.9186,4.0,2.279056822,230.1623334,2.96,'11111222,11111222,11111222' 
TABS,ioos:station:wmo:42043:1,2017-11-01T20:30:00Z,28.9818,-94.9186,4.0,2.276334773,206.3400704,2.95,'11111222,11111222,11111222' 
TABS,ioos:station:wmo:42043:1,2017-11-01T21:00:00Z,28.9818,-94.9186,4.0,2.297150409,209.4665898,2.82,'11111222,11111222,11111222' 
TABS,ioos:station:wmo:42043:1,2017-11-01T21:30:00Z,28.9818,-94.9186,4.0,2.891712296,204.0833503,3.43,'11111222,11111222,11111222' 
TABS,ioos:station:wmo:42043:1,2017-11-01T22:00:00Z,28.9818,-94.9186,4.0,2.570933683,194.4147831,3.19,'11111222,11111222,11111222' 
TABS,ioos:station:wmo:42043:1,2017-11-01T22:30:00Z,28.9818,-94.9186,4.0,2.290021834,179.7500127,2.63,'11111222,11111222,11111222' 
TABS,ioos:station:wmo:42043:1,2017-11-01T23:00:00Z,28.9818,-94.9186,4.0,3.160569569,178.9124492,3.72,'11111222,11111222,11111222' 
TABS,ioos:station:wmo:42043:1,2017-11-01T23:30:00Z,28.9818,-94.9186,4.0,2.27178344,182.2706548,2.69,'11111222,11111222,11111222' 
TABS,ioos:station:wmo:42043:1,2017-11-02T00:00:00Z,28.9818,-94.9186,4.0,2.980419434,180.9614566,3.53,'11111222,11111222,11111222' 
TABS,ioos:station:wmo:42043:1,2017-11-02T00:30:00Z,28.9818,-94.9186,4.0,2.501279672,178.1673752,2.96,'11111222,11111222,11111222' 
TABS,ioos:station:wmo:42043:1,2017-11-02T01:00:00Z,28.9818,-94.9186,4.0,3.411773732,178.1526045,4.2,'11111222,11111222,11111222' 
TABS,ioos:station:wmo:42043:1,2017-11-02T01:30:00Z,28.9818,-94.9186,4.0,2.882932535,177.4157031,3.2,'11111222,11111222,11111222' 
TABS,ioos:station:wmo:42043:1,2017-11-02T02:00:00Z,28.9818,-94.9186,4.0,3.002399041,177.7096058,3.47,'11111222,11111222,11111222' 
TABS,ioos:station:wmo:42043:1,2017-11-02T02:30:00Z,28.9818,-94.9186,4.0,4.111216365,178.6064308,5.01,'11111222,11111222,11111222' 
TABS,ioos:station:wmo:42043:1,2017-11-02T03:00:00Z,28.9818,-94.9186,4.0,4.410555521,180.9095888,5.05,'11111222,11111222,11111222' 
TABS,ioos:station:wmo:42043:1,2017-11-02T03:30:00Z,28.9818,-94.9186,4.0,4.956309111,182.8914733,5.6,'11111222,11111222,11111222' 
TABS,ioos:station:wmo:42043:1,2017-11-02T04:00:00Z,28.9818,-94.9186,4.0,5.905726035,182.5234708,6.91,'11111222,11111222,11111222' 
TABS,ioos:station:wmo:42043:1,2017-11-02T04:30:00Z,28.9818,-94.9186,4.0,5.48534411,184.2867498,6.73,'11111222,11111222,11111222' 
TABS,ioos:station:wmo:42043:1,2017-11-02T05:00:00Z,28.9818,-94.9186,4.0,5.217518567,183.0764796,6.15,'11111222,11111222,11111222' 
TABS,ioos:station:wmo:42043:1,2017-11-02T05:30:00Z,28.9818,-94.9186,4.0,5.60557758,182.5563546,6.38,'11111222,11111222,11111222' 
TABS,ioos:station:wmo:42043:1,2017-11-02T06:00:00Z,28.9818,-94.9186,4.0,4.812036991,181.6673885,5.78,'11111222,11111222,11111222' 
TABS,ioos:station:wmo:42043:1,2017-11-02T06:30:00Z,28.9818,-94.9186,4.0,5.141400587,181.337609,5.97,'11111222,11111222,11111222' 
TABS,ioos:station:wmo:42043:1,2017-11-02T07:00:00Z,28.9818,-94.9186,4.0,4.917570538,186.0701876,6.04,'11111222,11111222,11111222' 
TABS,ioos:station:wmo:42043:1,2017-11-02T07:30:00Z,28.9818,-94.9186,4.0,4.791763767,181.5548255,6.19,'11111222,11111222,11111222' 
TABS,ioos:station:wmo:42043:1,2017-11-02T08:00:00Z,28.9818,-94.9186,4.0,4.342948307,182.1115361,5.02,'11111222,11111222,11111222' 
TABS,ioos:station:wmo:42043:1,2017-11-02T08:30:00Z,28.9818,-94.9186,4.0,4.483614613,182.3010301,4.99,'11111222,11111222,11111222' 
TABS,ioos:station:wmo:42043:1,2017-11-02T09:00:00Z,28.9818,-94.9186,4.0,3.905649754,183.0823841,4.64,'11111222,11111222,11111222' 
TABS,ioos:station:wmo:42043:1,2017-11-02T09:30:00Z,28.9818,-94.9186,4.0,3.530056657,179.6755927,4.23,'11111222,11111222,11111222' 
TABS,ioos:station:wmo:42043:1,2017-11-02T10:00:00Z,28.9818,-94.9186,4.0,2.67977611,170.1161096,3.18,'11111222,11111222,11111222' 
TABS,ioos:station:wmo:42043:1,2017-11-02T10:30:00Z,28.9818,-94.9186,4.0,3.332941644,177.5928022,3.68,'11111222,11111222,11111222' 
TABS,ioos:station:wmo:42043:1,2017-11-02T11:00:00Z,28.9818,-94.9186,4.0,2.62429038,166.3346689,3.04,'11111222,11111222,11111222' 
TABS,ioos:station:wmo:42043:1,2017-11-02T11:30:00Z,28.9818,-94.9186,4.0,2.463371673,168.0516851,2.85,'11111222,11111222,11111222' 
TABS,ioos:station:wmo:42043:1,2017-11-02T12:00:00Z,28.9818,-94.9186,4.0,2.776940763,162.6093012,3.12,'11111222,11111222,11111222' 
TABS,ioos:station:wmo:42043:1,2017-11-02T12:30:00Z,28.9818,-94.9186,4.0,2.956010825,163.895106,3.4,'11111222,11111222,11111222' 
TABS,ioos:station:wmo:42043:1,2017-11-02T13:00:00Z,28.9818,-94.9186,4.0,2.93743085,156.3150443,3.31,'11111222,11111222,11111222' 
TABS,ioos:station:wmo:42043:1,2017-11-02T13:30:00Z,28.9818,-94.9186,4.0,2.835947813,159.1368108,3.3,'11111222,11111222,11111222' 
TABS,ioos:station:wmo:42043:1,2017-11-02T14:00:00Z,28.9818,-94.9186,4.0,3.153569406,154.6540938,3.65,'11111222,11111222,11111222' 
TABS,ioos:station:wmo:42043:1,2017-11-02T14:30:00Z,28.9818,-94.9186,4.0,3.747238984,165.6302425,4.53,'11111222,11111222,11111222' 
TABS,ioos:station:wmo:42043:1,2017-11-02T15:00:00Z,28.9818,-94.9186,4.0,3.038173794,167.8396246,3.5,'11111222,11111222,11111222' 
TABS,ioos:station:wmo:42043:1,2017-11-02T15:30:00Z,28.9818,-94.9186,4.0,3.018625515,167.7596578,3.59,'11111222,11111222,11111222' 
TABS,ioos:station:wmo:42043:1,2017-11-02T16:00:00Z,28.9818,-94.9186,4.0,2.909037642,171.8979811,3.31,'11111222,11111222,11111222' 
TABS,ioos:station:wmo:42043:1,2017-11-02T16:30:00Z,28.9818,-94.9186,4.0,3.330960822,175.3508568,3.95,'11111222,11111222,11111222' 
TABS,ioos:station:wmo:42043:1,2017-11-02T17:00:00Z,28.9818,-94.9186,4.0,3.340733452,178.7995793,3.96,'11111222,11111222,11111222' 
TABS,ioos:station:wmo:42043:1,2017-11-02T17:30:00Z,28.9818,-94.9186,4.0,3.367862824,176.0842958,3.88,'11111222,11111222,11111222' 
TABS,ioos:station:wmo:42043:1,2017-11-02T18:00:00Z,28.9818,-94.9186,4.0,3.512833614,175.1011295,3.9,'11111222,11111222,11111222' 
TABS,ioos:station:wmo:42043:1,2017-11-02T18:30:00Z,28.9818,-94.9186,4.0,3.170504692,173.480424,3.6,'11111222,11111222,11111222' 
TABS,ioos:station:wmo:42043:1,2017-11-02T19:00:00Z,28.9818,-94.9186,4.0,3.146680791,170.1188274,3.54,'11111222,11111222,11111222' 
TABS,ioos:station:wmo:42043:1,2017-11-02T19:30:00Z,28.9818,-94.9186,4.0,3.520568136,173.8038115,3.97,'11111222,11111222,11111222' 
TABS,ioos:station:wmo:42043:1,2017-11-02T20:00:00Z,28.9818,-94.9186,4.0,3.657758877,174.3519763,4.36,'11111222,11111222,11111222' 
TABS,ioos:station:wmo:42043:1,2017-11-02T20:30:00Z,28.9818,-94.9186,4.0,3.542485003,167.6117763,4.13,'11111222,11111222,11111222' 
TABS,ioos:station:wmo:42043:1,2017-11-02T21:00:00Z,28.9818,-94.9186,4.0,3.112699793,164.5352542,3.49,'11111222,11111222,11111222' 
TABS,ioos:station:wmo:42043:1,2017-11-02T21:30:00Z,28.9818,-94.9186,4.0,3.298742185,166.6801581,3.73,'11111222,11111222,11111222' 
TABS,ioos:station:wmo:42043:1,2017-11-02T22:00:00Z,28.9818,-94.9186,4.0,3.072930198,165.8735569,3.5,'11111222,11111222,11111222' 
TABS,ioos:station:wmo:42043:1,2017-11-02T22:30:00Z,28.9818,-94.9186,4.0,2.473580401,152.2956753,2.88,'11111222,11111222,11111222' 
TABS,ioos:station:wmo:42043:1,2017-11-02T23:00:00Z,28.9818,-94.9186,4.0,2.824128184,162.2710385,3.38,'11111222,11111222,11111222' 
TABS,ioos:station:wmo:42043:1,2017-11-02T23:30:00Z,28.9818,-94.9186,4.0,2.959256663,165.1187156,3.29,'11111222,11111222,11111222' 
TABS,ioos:station:wmo:42043:1,2017-11-03T00:00:00Z,28.9818,-94.9186,4.0,3.825728689,164.6925867,4.3,'11111222,11111222,11111222' 
TABS,ioos:station:wmo:42043:1,2017-11-03T00:30:00Z,28.9818,-94.9186,4.0,3.330975833,167.3408333,3.77,'11111222,11111222,11111222' 
TABS,ioos:station:wmo:42043:1,2017-11-03T01:00:00Z,28.9818,-94.9186,4.0,3.081119926,164.5657224,3.47,'11111222,11111222,11111222' 
TABS,ioos:station:wmo:42043:1,2017-11-03T01:30:00Z,28.9818,-94.9186,4.0,2.618472837,157.5487165,3.17,'11111222,11111222,11111222' 
TABS,ioos:station:wmo:42043:1,2017-11-03T02:00:00Z,28.9818,-94.9186,4.0,3.181980515,151.2604824,3.67,'11111222,11111222,11111222' 
TABS,ioos:station:wmo:42043:1,2017-11-03T02:30:00Z,28.9818,-94.9186,4.0,3.50783409,157.8955427,4.17,'11111222,11111222,11111222' 
TABS,ioos:station:wmo:42043:1,2017-11-03T03:00:00Z,28.9818,-94.9186,4.0,4.20088086,160.0987185,4.86,'11111222,11111222,11111222' 
TABS,ioos:station:wmo:42043:1,2017-11-03T03:30:00Z,28.9818,-94.9186,4.0,3.60700707,156.9893913,4.09,'11111222,11111222,11111222' 
TABS,ioos:station:wmo:42043:1,2017-11-03T04:00:00Z,28.9818,-94.9186,4.0,3.637925233,158.7252902,4.26,'11111222,11111222,11111222' 
TABS,ioos:station:wmo:42043:1,2017-11-03T04:30:00Z,28.9818,-94.9186,4.0,4.239622625,166.3573276,4.75,'11111222,11111222,11111222' 
TABS,ioos:station:wmo:42043:1,2017-11-03T05:00:00Z,28.9818,-94.9186,4.0,4.173823187,167.8287807,4.82,'11111222,11111222,11111222' 
TABS,ioos:station:wmo:42043:1,2017-11-03T05:30:00Z,28.9818,-94.9186,4.0,3.500314272,166.9565486,3.95,'11111222,11111222,11111222' 
TABS,ioos:station:wmo:42043:1,2017-11-03T06:00:00Z,28.9818,-94.9186,4.0,2.3157936,173.3048433,2.76,'11111222,11111222,11111222' 
TABS,ioos:station:wmo:42043:1,2017-11-03T06:30:00Z,28.9818,-94.9186,4.0,2.45399674,176.7297302,2.83,'11111222,11111222,11111222' 
TABS,ioos:station:wmo:42043:1,2017-11-03T07:00:00Z,28.9818,-94.9186,4.0,2.133775996,168.374339,2.48,'11111222,11111222,11111222' 
TABS,ioos:station:wmo:42043:1,2017-11-03T07:30:00Z,28.9818,-94.9186,4.0,1.716770223,149.5516581,1.99,'11111222,11111222,11111222' 
TABS,ioos:station:wmo:42043:1,2017-11-03T08:00:00Z,28.9818,-94.9186,4.0,2.093227174,135.774534,2.41,'11111222,11111222,11111222' 
TABS,ioos:station:wmo:42043:1,2017-11-03T08:30:00Z,28.9818,-94.9186,4.0,2.511135201,148.0190877,2.84,'11111222,11111222,11111222' 
TABS,ioos:station:wmo:42043:1,2017-11-03T09:00:00Z,28.9818,-94.9186,4.0,2.359745749,160.1831043,2.75,'11111222,11111222,11111222' 
TABS,ioos:station:wmo:42043:1,2017-11-03T09:30:00Z,28.9818,-94.9186,4.0,2.331115613,138.6525299,2.76,'11111222,11111222,11111222' 
TABS,ioos:station:wmo:42043:1,2017-11-03T10:00:00Z,28.9818,-94.9186,4.0,2.259668117,138.4088821,2.49,'11111222,11111222,11111222' 
TABS,ioos:station:wmo:42043:1,2017-11-03T10:30:00Z,28.9818,-94.9186,4.0,1.991105221,149.1845768,2.25,'11111222,11111222,11111222' 
TABS,ioos:station:wmo:42043:1,2017-11-03T11:00:00Z,28.9818,-94.9186,4.0,2.299934782,159.9107324,2.7,'11111222,11111222,11111222' 
TABS,ioos:station:wmo:42043:1,2017-11-03T11:30:00Z,28.9818,-94.9186,4.0,2.444033551,138.483579,2.8,'11111222,11111222,11111222' 
TABS,ioos:station:wmo:42043:1,2017-11-03T12:00:00Z,28.9818,-94.9186,4.0,3.009800658,149.0038792,3.44,'11111222,11111222,11111222' 
TABS,ioos:station:wmo:42043:1,2017-11-03T12:30:00Z,28.9818,-94.9186,4.0,2.853769437,148.7610686,3.34,'11111222,11111222,11111222' 
TABS,ioos:station:wmo:42043:1,2017-11-03T13:00:00Z,28.9818,-94.9186,4.0,2.692582404,141.9386853,3.14,'11111222,11111222,11111222' 
TABS,ioos:station:wmo:42043:1,2017-11-03T13:30:00Z,28.9818,-94.9186,4.0,2.698758974,145.7213869,3.09,'11111222,11111222,11111222' 
TABS,ioos:station:wmo:42043:1,2017-11-03T14:00:00Z,28.9818,-94.9186,4.0,2.723416971,148.8200451,3.21,'11111222,11111222,11111222' 
TABS,ioos:station:wmo:42043:1,2017-11-03T14:30:00Z,28.9818,-94.9186,4.0,2.524202844,142.4040272,2.82,'11111222,11111222,11111222' 
TABS,ioos:station:wmo:42043:1,2017-11-03T15:00:00Z,28.9818,-94.9186,4.0,2.558945095,149.7277271,2.84,'11111222,11111222,11111222' 
TABS,ioos:station:wmo:42043:1,2017-11-03T15:30:00Z,28.9818,-94.9186,4.0,2.375478899,148.2505704,2.71,'11111222,11111222,11111222' 
TABS,ioos:station:wmo:42043:1,2017-11-03T16:00:00Z,28.9818,-94.9186,4.0,2.625280937,141.3404926,2.9,'11111222,11111222,11111222' 
TABS,ioos:station:wmo:42043:1,2017-11-03T16:30:00Z,28.9818,-94.9186,4.0,2.601115145,150.7745153,2.83,'11111222,11111222,11111222' 
TABS,ioos:station:wmo:42043:1,2017-11-03T17:00:00Z,28.9818,-94.9186,4.0,2.865309756,150.7514525,3.17,'11111222,11111222,11111222' 
TABS,ioos:station:wmo:42043:1,2017-11-03T17:30:00Z,28.9818,-94.9186,4.0,3.614194239,152.3008024,3.98,'11111222,11111222,11111222' 
TABS,ioos:station:wmo:42043:1,2017-11-03T18:00:00Z,28.9818,-94.9186,4.0,2.719007172,141.5708587,3.29,'11111222,11111222,11111222' 
TABS,ioos:station:wmo:42043:1,2017-11-03T18:30:00Z,28.9818,-94.9186,4.0,3.144026081,152.9462235,3.54,'11111222,11111222,11111222' 
TABS,ioos:station:wmo:42043:1,2017-11-03T19:00:00Z,28.9818,-94.9186,4.0,2.935864438,158.4162917,3.28,'11111222,11111222,11111222' 
TABS,ioos:station:wmo:42043:1,2017-11-03T19:30:00Z,28.9818,-94.9186,4.0,3.209750769,161.847547,3.51,'11111222,11111222,11111222' 
TABS,ioos:station:wmo:42043:1,2017-11-03T20:00:00Z,28.9818,-94.9186,4.0,3.473154186,162.9217787,3.77,'11111222,11111222,11111222' 
TABS,ioos:station:wmo:42043:1,2017-11-03T20:30:00Z,28.9818,-94.9186,4.0,4.025729748,162.0603844,4.62,'11111222,11111222,11111222' 
TABS,ioos:station:wmo:42043:1,2017-11-03T21:00:00Z,28.9818,-94.9186,4.0,3.788931248,165.0103832,4.26,'11111222,11111222,11111222' 
TABS,ioos:station:wmo:42043:1,2017-11-03T21:30:00Z,28.9818,-94.9186,4.0,3.334936281,165.5889791,3.91,'11111222,11111222,11111222' 
TABS,ioos:station:wmo:42043:1,2017-11-03T22:00:00Z,28.9818,-94.9186,4.0,3.843383926,164.3005786,4.29,'11111222,11111222,11111222' 
TABS,ioos:station:wmo:42043:1,2017-11-03T22:30:00Z,28.9818,-94.9186,4.0,3.168927263,155.7807658,3.73,'11111222,11111222,11111222' 
TABS,ioos:station:wmo:42043:1,2017-11-03T23:00:00Z,28.9818,-94.9186,4.0,2.240825741,154.3500442,2.69,'11111222,11111222,11111222' 
TABS,ioos:station:wmo:42043:1,2017-11-03T23:30:00Z,28.9818,-94.9186,4.0,2.724151244,158.2379083,3.07,'11111222,11111222,11111222' 
TABS,ioos:station:wmo:42043:1,2017-11-04T00:00:00Z,28.9818,-94.9186,4.0,2.84543494,157.0396335,3.07,'11111222,11111222,11111222' 
TABS,ioos:station:wmo:42043:1,2017-11-04T00:30:00Z,28.9818,-94.9186,4.0,2.971346496,169.3331989,3.31,'11111222,11111222,11111222' 
TABS,ioos:station:wmo:42043:1,2017-11-04T01:00:00Z,28.9818,-94.9186,4.0,3.840885315,174.0224508,4.44,'11111222,11111222,11111222' 
TABS,ioos:station:wmo:42043:1,2017-11-04T01:30:00Z,28.9818,-94.9186,4.0,3.664600933,171.0519894,4.26,'11111222,11111222,11111222' 
TABS,ioos:station:wmo:42043:1,2017-11-04T02:00:00Z,28.9818,-94.9186,4.0,3.917511966,174.5806906,4.53,'11111222,11111222,11111222' 
TABS,ioos:station:wmo:42043:1,2017-11-04T02:30:00Z,28.9818,-94.9186,4.0,3.28975683,170.0225212,3.8,'11111222,11111222,11111222' 
TABS,ioos:station:wmo:42043:1,2017-11-04T03:00:00Z,28.9818,-94.9186,4.0,3.032655602,158.93562,3.42,'11111222,11111222,11111222' 
TABS,ioos:station:wmo:42043:1,2017-11-04T03:30:00Z,28.9818,-94.9186,4.0,2.374973684,144.7711062,2.78,'11111222,11111222,11111222' 
TABS,ioos:station:wmo:42043:1,2017-11-04T04:00:00Z,28.9818,-94.9186,4.0,2.213820228,152.8564972,2.63,'11111222,11111222,11111222' 
TABS,ioos:station:wmo:42043:1,2017-11-04T04:30:00Z,28.9818,-94.9186,4.0,1.71119841,135.0003157,2.25,'11111222,11111222,11111222' 
TABS,ioos:station:wmo:42043:1,2017-11-04T05:00:00Z,28.9818,-94.9186,4.0,2.267531698,154.1132447,2.71,'11111222,11111222,11111222' 
TABS,ioos:station:wmo:42043:1,2017-11-04T05:30:00Z,28.9818,-94.9186,4.0,2.479697562,151.0578865,2.97,'11111222,11111222,11111222' 
TABS,ioos:station:wmo:42043:1,2017-11-04T06:00:00Z,28.9818,-94.9186,4.0,1.886080592,146.900009,2.2,'11111222,11111222,11111222' 
TABS,ioos:station:wmo:42043:1,2017-11-04T06:30:00Z,28.9818,-94.9186,4.0,1.596652749,152.7932802,1.85,'11111222,11111222,11111222' 
TABS,ioos:station:wmo:42043:1,2017-11-04T07:00:00Z,28.9818,-94.9186,4.0,1.583192976,152.9496767,1.78,'11111222,11111222,11111222' 
TABS,ioos:station:wmo:42043:1,2017-11-04T07:30:00Z,28.9818,-94.9186,4.0,1.790027933,160.7555262,2.02,'11111222,11111222,11111222' 
TABS,ioos:station:wmo:42043:1,2017-11-04T08:00:00Z,28.9818,-94.9186,4.0,1.91971352,147.5519849,2.24,'11111222,11111222,11111222' 
TABS,ioos:station:wmo:42043:1,2017-11-04T08:30:00Z,28.9818,-94.9186,4.0,1.860779407,149.3005597,2.17,'11111222,11111222,11111222' 
TABS,ioos:station:wmo:42043:1,2017-11-04T09:00:00Z,28.9818,-94.9186,4.0,1.791089054,150.5728229,2.09,'11111222,11111222,11111222' 
TABS,ioos:station:wmo:42043:1,2017-11-04T09:30:00Z,28.9818,-94.9186,4.0,1.506286825,135.8072433,1.81,'11111222,11111222,11111222' 
TABS,ioos:station:wmo:42043:1,2017-11-04T10:00:00Z,28.9818,-94.9186,4.0,1.312440475,144.6148625,1.51,'11111222,11111222,11111222' 
TABS,ioos:station:wmo:42043:1,2017-11-04T10:30:00Z,28.9818,-94.9186,4.0,1.172902383,140.8827475,1.51,'11111222,11111222,11111222' 
TABS,ioos:station:wmo:42043:1,2017-11-04T11:00:00Z,28.9818,-94.9186,4.0,1.224295716,159.9371847,1.46,'11111222,11111222,11111222' 
TABS,ioos:station:wmo:42043:1,2017-11-04T11:30:00Z,28.9818,-94.9186,4.0,1.344061011,160.8912694,1.56,'11111222,11111222,11111222' 
TABS,ioos:station:wmo:42043:1,2017-11-04T12:00:00Z,28.9818,-94.9186,4.0,1.755704987,160.0171507,2.05,'11111222,11111222,11111222' 
TABS,ioos:station:wmo:42043:1,2017-11-04T12:30:00Z,28.9818,-94.9186,4.0,2.313979257,158.9805257,2.6,'11111222,11111222,11111222' 
TABS,ioos:station:wmo:42043:1,2017-11-04T13:00:00Z,28.9818,-94.9186,4.0,2.096520928,158.4525954,2.33,'11111222,11111222,11111222' 
TABS,ioos:station:wmo:42043:1,2017-11-04T13:30:00Z,28.9818,-94.9186,4.0,2.415056935,152.9047213,2.74,'11111222,11111222,11111222' 
TABS,ioos:station:wmo:42043:1,2017-11-04T14:00:00Z,28.9818,-94.9186,4.0,2.687768591,153.2445544,2.94,'11111222,11111222,11111222' 
TABS,ioos:station:wmo:42043:1,2017-11-04T14:30:00Z,28.9818,-94.9186,4.0,2.844450738,152.8046344,3.07,'11111222,11111222,11111222' 
TABS,ioos:station:wmo:42043:1,2017-11-04T15:00:00Z,28.9818,-94.9186,4.0,2.464183435,153.7471728,2.69,'11111222,11111222,11111222' 
TABS,ioos:station:wmo:42043:1,2017-11-04T15:30:00Z,28.9818,-94.9186,4.0,2.675518641,148.4488993,2.97,'11111222,11111222,11111222' 
TABS,ioos:station:wmo:42043:1,2017-11-04T16:00:00Z,28.9818,-94.9186,4.0,2.788781096,144.4864989,3.1,'11111222,11111222,11111222' 
TABS,ioos:station:wmo:42043:1,2017-11-04T16:30:00Z,28.9818,-94.9186,4.0,2.752635101,151.1074118,3.17,'11111222,11111222,11111222' 
TABS,ioos:station:wmo:42043:1,2017-11-04T17:00:00Z,28.9818,-94.9186,4.0,1.876272901,144.1076287,2.37,'11111222,11111222,11111222' 
TABS,ioos:station:wmo:42043:1,2017-11-04T17:30:00Z,28.9818,-94.9186,4.0,3.294798932,156.0024643,3.82,'11111222,11111222,11111222' 
TABS,ioos:station:wmo:42043:1,2017-11-04T18:00:00Z,28.9818,-94.9186,4.0,2.57503398,160.0171507,2.83,'11111222,11111222,11111222' 
TABS,ioos:station:wmo:42043:1,2017-11-04T18:30:00Z,28.9818,-94.9186,4.0,2.553918558,149.9214794,2.83,'11111222,11111222,11111222' 